Location: Paderno d�Adda
(45.6667°N, 9.4333°E)
Time: 22:32:18
(UTC+00:00)

CENTAUR R/B - Pass Details

Date: 17 January 2021
Orbit: 742 x 1446 km, 63.5° (Epoch: 07 March)

Event Time Altitude Azimuth Distance (km) Brightness Sun altitude
Rises 17:07:55 0° 314° (NW) 4,267 6.2 -10.5°
Reaches altitude 10° 17:11:08 10° 303° (WNW) 3,381 5.9 -11.0°
Maximum altitude 17:17:49 27° 250° (WSW) 2,429 5.5 -12.1°
Drops below altitude 10° 17:24:50 10° 198° (SSW) 3,551 5.9 -13.3°
Sets 17:28:20 0° 187° (S) 4,519 6.3 -13.9°
